Theta_e
323 325 327 331 334 336 339 344 343 352 350 345 339 336 333 336 335 336 339 339 340 342 342 341 340 340 336 334 335 332 332 332 335 331 330 332 335 335 332 333 332 333 335
322 323 326 334 334 336 339 340 341 347 348 343 342 337 337 334 334 336 339 340 340 341 339 339 340 339 338 336 332 335 332 334 336 327 328 322 327 333 332 333 333 335 334
320 323 324 334 334 335 338 339 341 345 346 347 342 339 337 337 334 333 334 338 339 340 340 338 338 338 339 336 336 334 331 329 333 332 329 322 320 325 333 333 332 339 341
321 323 325 332 334 335 337 339 342 342 342 346 343 344 334 329 332 336 334 337 338 337 337 337 336 336 339 335 334 336 332 333 329 333 331 333 331 322 321 334 337 341 340
320 321 328 332 334 335 336 339 341 340 342 342 344 335 336 331 333 333 336 339 339 337 336 336 336 337 338 337 335 333 333 335 333 332 335 331 332 331 320 320 329 334 337
321 325 331 332 333 334 336 338 338 338 340 338 339 339 337 334 332 333 335 337 340 338 337 334 336 337 338 335 333 335 334 334 336 337 333 335 329 325 327 328 327 326 328
324 327 329 329 331 333 334 335 336 337 337 337 336 336 337 337 336 335 336 335 335 337 337 335 337 337 337 337 337 336 335 336 335 335 335 338 338 334 336 328 324 324 326
326 327 328 329 330 332 333 334 335 334 335 335 335 337 338 335 336 336 334 337 335 337 336 336 337 336 336 336 337 342 339 337 338 335 336 339 338 340 340 337 326 320 323
326 327 328 330 330 332 333 334 334 334 334 333 336 337 338 336 336 336 337 335 336 333 335 336 336 335 335 336 336 337 335 335 336 336 337 337 337 335 340 341 334 331 319
326 327 328 330 331 332 334 335 334 333 332 334 335 335 337 337 337 335 334 336 334 333 334 335 336 335 335 336 337 336 335 334 335 334 331 333 336 330 336 334 334 335 326
325 327 328 329 331 332 333 334 332 331 331 334 334 337 336 336 336 334 333 334 334 333 332 332 334 334 334 335 334 334 333 331 330 329 327 331 333 335 332 330 331 329 327
325 326 327 329 330 331 332 332 330 329 331 332 333 334 336 337 336 335 336 334 333 332 331 330 330 332 332 333 332 330 331 330 328 326 328 328 330 333 333 332 328 325 325
325 326 327 327 329 330 331 328 328 328 330 331 332 335 336 337 335 335 336 333 332 331 332 331 330 331 331 330 331 331 330 331 331 327 325 325 327 328 327 326 325 324 324
324 325 326 327 329 330 328 326 326 328 329 330 331 333 336 335 334 335 335 332 332 331 331 331 332 333 332 331 330 331 330 331 332 332 329 326 329 327 327 326 326 325 322
323 325 325 327 328 328 327 325 326 327 329 328 331 334 335 335 334 334 334 335 332 335 331 333 332 332 333 330 330 332 333 332 333 331 329 331 326 322 325 326 326 325 323
323 325 326 327 327 327 325 325 326 327 328 328 331 332 333 332 333 334 334 335 334 334 333 333 331 332 329 310 313 319 335 334 332 331 329 329 325 319 314 315 318 323 323
324 325 326 328 328 327 326 324 326 327 327 329 331 331 331 331 331 332 332 333 334 336 335 334 333 332 330 310 311 311 334 335 334 332 328 330 330 327 321 312 312 313 313
325 326 327 329 330 328 326 326 326 326 326 329 330 331 331 331 330 331 332 334 339 336 337 335 334 332 326 305 304 306 335 335 333 334 334 333 331 330 327 327 325 324 325
328 329 330 331 331 327 326 325 325 324 325 328 330 330 331 331 332 333 334 338 338 338 335 335 334 332 329 303 303 313 335 333 332 332 334 333 331 306 310 327 324 320 317
329 330 331 331 331 328 327 325 324 323 324 327 330 331 331 332 332 335 336 337 339 337 335 333 334 321 329 303 301 317 333 329 333 332 325 309 320 303 309 327 327 322 321
329 332 331 331 331 328 327 324 325 322 325 328 331 332 334 333 335 336 337 338 337 336 333 332 334 333 329 321 304 306 332 332 331 329 327 326 300 304 306 315 328 322 327
328 331 330 331 332 328 326 324 324 325 326 327 330 332 334 333 334 335 335 336 338 336 332 332 330 331 332 314 304 304 313 318 331 328 328 320 299 301 306 318 303 303 315
328 330 331 331 331 329 327 324 326 325 325 326 329 332 334 333 335 334 334 332 335 331 332 331 327 327 330 327 303 304 306 311 330 329 313 299 297 298 305 300 303 304 327
326 329 330 330 330 329 327 327 327 325 324 326 328 331 332 332 334 332 330 330 329 329 329 328 328 329 330 329 330 328 323 309 318 308 316 317 310 304 311 313 314 328 331
328 329 330 331 331 329 327 327 327 325 325 327 327 329 331 332 332 332 328 327 333 324 328 328 328 330 328 328 320 323 329 330 324 327 329 328 329 325 322 323 325 328 329
329 327 330 331 332 329 328 326 327 325 327 328 326 326 327 331 330 329 329 298 303 302 304 303 314 326 311 305 303 304 303 301 304 326 327 327 327 326 325 324 324 325 321
Wind_Speed
23 21 17 5 4 7 6 9 12 13 12 12 12 11 10 8 7 7 8 7 7 5 7 7 8 8 8 9 9 7 8 7 6 4 5 5 9 7 9 8 10 9 10
26 21 13 5 5 7 9 12 13 14 13 10 9 8 7 8 8 7 6 6 8 8 6 5 7 9 7 9 9 9 7 7 6 5 4 4 5 8 9 7 6 6 5
24 19 16 7 7 9 11 13 14 15 13 11 7 5 6 2 4 6 7 9 7 3 7 9 7 8 7 6 8 7 10 7 7 11 5 4 5 8 7 8 7 7 6
19 19 9 10 9 10 11 14 15 16 13 11 9 9 7 7 4 2 2 2 4 7 4 6 7 6 5 7 7 8 9 8 7 5 9 9 7 5 7 6 6 5 7
21 19 13 12 11 12 13 15 16 15 13 11 9 8 6 6 3 3 1 4 3 5 6 6 4 6 6 6 7 5 7 6 7 7 5 8 8 8 6 9 5 2 1
17 6 13 13 13 14 15 16 17 14 13 10 9 7 6 1 2 4 0 2 3 3 6 6 6 3 4 4 4 5 7 5 6 5 5 5 4 6 3 5 7 6 2
9 12 15 15 16 17 17 16 16 15 13 11 9 7 5 3 4 3 4 4 2 3 6 4 1 2 2 5 6 6 5 5 4 5 5 3 4 3 3 6 6 3 1
11 14 16 17 18 18 18 17 16 15 13 11 9 7 6 7 3 3 5 5 2 4 5 3 3 3 4 4 3 4 4 4 3 4 4 3 3 3 3 6 9 5 2
13 16 18 17 18 17 17 16 15 14 12 11 8 7 6 0 4 3 2 5 4 4 4 3 2 2 4 3 2 1 1 1 3 2 2 1 3 4 2 4 9 7 6
16 17 17 18 17 16 15 15 14 13 12 11 9 8 7 4 4 3 0 5 3 3 6 3 2 3 3 4 3 2 2 1 2 4 5 5 2 5 3 5 4 4 8
17 18 17 17 17 16 15 14 13 12 11 10 9 7 7 6 5 4 3 6 5 4 5 5 5 4 5 5 3 2 3 3 1 2 2 4 3 4 5 6 6 6 9
18 18 18 18 17 16 15 14 12 12 11 10 8 8 7 5 5 4 3 8 7 5 4 3 3 9 5 3 3 3 3 6 5 2 5 4 2 4 4 6 9 7 10
18 18 18 17 16 15 15 13 12 12 11 10 8 8 5 5 5 5 4 7 6 5 5 3 5 6 5 3 3 5 2 5 7 6 6 4 1 5 6 8 9 8 7
18 17 17 16 16 15 15 13 12 12 11 9 8 9 4 6 6 6 4 3 7 6 6 4 8 6 6 6 4 5 6 4 6 9 7 5 5 8 9 10 10 11 12
17 17 16 16 16 15 14 13 12 12 10 9 9 9 7 7 8 6 6 5 2 2 6 5 7 6 6 6 2 2 5 6 8 7 8 6 8 9 10 8 10 14 11
17 17 17 17 16 16 14 13 12 12 11 9 12 8 9 8 9 9 7 5 5 4 8 5 9 4 8 8 8 8 2 10 10 9 10 9 12 13 14 13 10 10 13
15 17 17 17 16 15 14 14 13 12 11 10 12 10 10 9 9 9 9 9 7 7 4 6 8 9 8 5 7 9 1 7 9 11 9 9 11 14 11 15 16 15 14
15 15 14 15 16 16 15 13 14 13 12 11 11 12 11 10 8 8 7 7 6 4 6 7 10 8 7 2 5 8 5 8 10 10 10 11 10 13 13 13 13 12 11
14 14 14 15 15 16 16 15 14 14 13 12 11 12 12 10 11 7 6 5 7 6 6 6 7 8 8 2 4 8 8 7 9 8 10 9 14 9 15 15 14 11 7
14 14 16 15 16 16 16 16 15 14 13 13 12 12 12 10 10 10 7 6 6 5 6 8 6 8 9 4 1 6 9 7 9 9 9 15 12 8 11 13 15 13 11
7 14 16 16 16 16 16 16 15 15 14 13 12 12 11 10 10 7 8 7 5 9 8 9 8 10 10 5 6 4 7 8 8 10 11 9 9 10 9 6 10 12 15
10 15 15 16 16 17 16 16 15 15 14 14 14 13 13 10 10 9 7 9 8 8 9 9 8 7 9 7 6 4 3 6 10 11 11 8 7 10 7 7 14 15 15
9 13 15 17 17 18 17 16 15 16 15 15 14 13 12 10 11 9 8 7 8 8 7 7 9 5 8 6 7 8 9 10 7 8 11 12 9 11 10 9 11 13 9
8 12 16 18 18 18 18 16 16 16 16 15 15 13 12 11 11 9 8 8 7 7 9 10 7 9 8 8 9 8 8 10 9 11 8 7 7 4 9 7 5 7 8
7 11 15 17 19 19 18 17 17 17 15 15 14 14 12 11 11 9 7 7 7 2 5 6 9 12 9 9 11 11 10 9 8 11 9 7 7 9 9 8 8 8 7
7 10 14 16 19 20 19 19 19 18 16 14 13 12 12 12 11 10 8 11 9 10 11 12 6 7 9 19 14 8 8 12 14 9 9 8 9 9 10 10 9 8 8
Wind_Direction
278 277 276 260 274 258 217 186 184 187 171 181 186 191 189 201 201 213 216 235 246 256 235 247 243 239 234 232 228 248 246 252 278 248 237 235 248 240 220 239 210 220 196
274 272 266 126 201 196 186 180 183 169 178 174 194 186 197 190 208 206 201 223 253 260 263 256 248 240 237 239 233 229 232 248 236 219 222 211 218 236 239 225 207 206 228
265 267 251 156 168 182 180 172 170 164 180 174 177 167 168 198 191 214 216 212 226 246 243 244 240 251 243 245 237 231 230 236 223 212 216 195 212 171 205 232 238 181 205
257 250 211 153 168 169 165 159 156 165 174 160 154 170 184 204 200 224 331 352 224 260 226 249 247 240 227 229 232 224 228 228 230 211 227 248 261 192 174 185 217 203 207
250 246 149 158 163 158 157 153 155 167 147 181 166 171 225 173 229 226 175 235 267 274 257 231 234 214 216 225 235 237 220 226 221 217 213 227 248 242 214 161 169 174 221
229 157 132 145 148 155 151 149 156 151 159 161 154 213 144 297 273 203 338 277 240 248 250 240 213 182 214 222 219 211 210 206 220 216 227 229 242 250 131 138 147 137 78
123 147 151 152 154 150 147 151 151 151 158 157 158 158 159 177 201 260 230 220 223 227 223 204 237 251 233 219 206 201 212 201 221 225 235 218 224 264 240 162 133 124 110
148 157 156 150 150 148 150 149 152 153 157 159 162 156 151 187 199 199 333 78 176 193 177 139 190 203 211 225 197 221 199 223 218 236 224 248 249 257 226 181 140 124 102
155 156 146 152 149 151 152 150 152 153 161 157 162 157 168 94 79 69 230 115 180 164 145 130 151 186 157 187 216 229 117 292 268 301 274 220 281 332 192 153 155 161 141
157 150 150 148 149 150 148 150 155 156 157 160 160 169 155 169 144 152 82 75 166 116 123 146 151 148 107 93 58 100 141 181 22 13 8 346 18 58 79 111 123 137 126
157 151 148 149 148 152 149 153 152 157 157 161 175 145 148 182 150 143 157 132 167 178 192 162 156 121 93 76 100 76 95 89 88 311 354 43 45 100 101 85 75 89 114
154 154 151 153 153 155 152 156 155 156 160 174 168 167 149 178 140 172 148 150 186 190 179 181 146 80 71 58 86 113 177 162 159 75 100 83 73 111 96 100 97 92 130
157 153 154 158 156 155 159 157 160 160 165 179 163 134 143 152 157 155 165 176 158 174 180 159 105 85 81 86 113 111 135 147 151 124 124 118 84 98 110 111 110 110 110
159 156 163 160 158 158 160 157 167 161 164 174 167 127 154 140 160 131 155 188 171 174 160 159 101 118 111 89 99 140 140 161 136 138 131 146 136 115 109 119 123 126 118
167 162 168 162 159 161 159 160 167 160 163 165 135 119 163 158 138 135 149 164 134 290 130 99 127 112 129 85 25 127 124 122 122 110 110 114 86 111 109 119 123 120 120
175 168 169 165 162 163 163 162 163 158 163 167 121 155 142 142 132 155 147 162 150 158 132 144 129 137 79 53 21 7 75 102 117 118 101 109 103 84 90 89 95 111 133
177 174 174 169 163 164 165 165 163 160 163 170 142 139 143 143 151 155 159 157 141 162 153 119 113 107 105 41 353 352 7 104 110 115 134 125 113 116 102 89 90 92 88
174 174 177 169 163 161 163 166 163 166 166 167 154 143 159 153 150 156 149 148 126 132 128 141 138 134 104 106 329 325 123 109 113 128 128 116 123 120 119 112 101 99 110
167 174 173 167 166 166 159 168 166 171 170 163 164 155 153 155 141 152 162 134 137 148 145 156 122 140 123 146 307 305 125 112 122 125 115 130 113 100 126 123 113 100 94
165 171 170 166 168 170 165 171 169 175 175 164 172 158 157 161 136 146 159 145 154 118 107 129 143 113 120 131 300 309 101 108 110 102 91 74 103 108 108 126 128 126 127
202 169 167 169 171 170 171 180 171 178 176 163 171 152 146 154 127 135 139 153 152 114 118 129 141 118 126 102 53 360 130 133 130 123 119 105 81 95 113 132 128 137 147
247 175 170 170 172 173 176 186 177 178 175 165 169 157 148 172 141 146 155 148 134 128 126 125 125 124 112 106 87 149 86 145 136 124 123 108 81 80 96 135 132 143 145
249 185 175 172 175 178 180 187 180 181 175 168 169 166 160 173 145 156 160 147 167 143 154 145 125 125 133 114 82 112 111 63 100 125 106 120 109 103 93 115 131 163 169
221 209 182 177 177 181 183 189 179 185 176 170 169 168 173 172 160 168 176 159 187 173 170 160 141 152 143 138 142 145 118 117 102 121 127 134 110 83 112 139 170 216 164
229 221 194 180 179 182 185 187 180 186 176 173 172 174 180 183 167 194 177 185 179 188 190 159 152 151 157 155 148 156 155 157 158 144 146 163 171 153 162 166 190 187 165
245 209 205 190 180 183 187 186 182 184 176 175 178 179 183 181 179 188 158 52 56 82 64 55 61 113 115 134 143 136 126 121 145 165 173 181 184 178 176 176 188 173 191